Wind_Speed
7 8 7 6 5 5 7 8 10 10 10 9 10 10 12 14 16 17 19 21 22 23 23 23 23 22 21 20 21 18 17 15 16 16 15 15 16 17 19 21 23 25 27 29 31 33 35 31 26 24 23 22 20 20
4 3 2 3 5 6 7 6 6 6 7 7 8 9 11 13 16 16 17 18 19 20 21 22 24 24 24 24 22 21 20 19 17 17 17 16 16 15 16 17 19 22 23 25 26 25 25 24 24 23 22 22 22 23
4 4 4 3 2 2 1 2 3 4 5 5 6 8 9 11 13 15 17 18 19 20 20 22 23 22 22 22 22 22 23 23 20 19 18 18 18 17 16 16 16 16 18 19 20 20 21 21 20 21 21 22 22 23
3 2 2 2 3 3 4 6 7 8 9 9 10 10 11 11 13 15 17 19 21 22 22 19 21 23 23 23 23 24 24 24 24 22 21 21 19 18 18 18 17 16 15 15 15 16 17 17 17 17 18 19 19 20
4 5 6 7 7 7 9 10 11 12 12 13 14 15 15 16 17 18 19 20 22 22 23 23 23 26 27 26 26 26 25 26 26 27 24 22 23 20 17 18 22 16 16 14 13 12 13 14 14 15 15 15 16 17
7 7 8 9 10 11 12 13 15 16 17 18 19 20 21 22 23 24 24 27 27 28 27 28 25 30 30 30 28 27 28 27 27 28 27 27 27 24 19 15 23 18 18 16 14 13 12 12 13 13 14 14 14 14
10 11 12 12 13 14 14 14 13 12 11 11 11 13 15 17 19 21 23 25 28 30 32 32 30 33 33 33 33 32 29 27 26 26 28 29 29 28 21 26 22 23 20 19 19 16 15 14 14 14 13 13 13 14
9 7 5 1 3 8 9 8 7 6 5 7 10 12 14 16 19 21 22 24 23 24 26 29 31 31 34 35 35 32 33 32 28 26 27 29 26 28 24 33 25 24 23 20 20 20 19 18 16 15 15 14 13 13
8 7 7 6 3 1 2 2 4 7 11 15 17 19 20 23 25 26 28 28 27 28 27 27 26 27 28 30 33 33 33 34 30 27 28 27 25 28 28 33 30 28 27 26 24 23 22 23 21 19 17 15 14 14
7 5 1 4 7 10 11 12 13 14 15 16 18 19 20 22 26 30 30 29 27 26 27 27 28 28 28 27 27 26 28 30 31 31 30 27 27 28 29 32 31 27 29 31 29 25 25 26 22 21 19 19 18 16
8 10 11 13 14 14 15 14 15 15 16 18 18 17 19 22 24 27 28 27 27 27 26 25 27 29 30 33 32 31 31 29 28 26 24 23 24 29 28 25 35 31 25 28 31 33 32 32 29 26 25 22 21 20
13 14 14 15 15 16 16 17 18 20 21 21 21 21 21 23 25 25 24 25 25 26 27 30 31 33 34 35 34 34 33 32 32 30 32 27 23 23 25 28 28 28 32 27 30 35 36 34 33 31 29 28 26 26
14 15 16 17 19 20 21 23 24 24 25 26 24 23 23 24 25 25 26 26 27 29 30 32 34 35 37 36 36 35 34 33 34 33 34 33 27 27 26 29 30 34 32 29 32 36 40 40 40 39 36 33 32 31
19 20 20 21 23 24 24 24 25 26 27 26 25 26 25 27 26 25 26 29 30 32 34 35 34 34 37 38 38 37 34 34 34 35 38 40 37 33 33 32 34 37 38 39 37 38 42 43 45 45 44 42 40 37
22 22 22 23 26 27 28 29 30 31 30 28 28 28 28 29 27 27 28 30 31 34 37 38 38 40 42 40 36 36 36 37 37 39 41 44 46 45 43 38 38 40 42 43 45 44 42 45 47 47 49 48 46 43
21 22 24 25 26 27 28 28 30 30 30 30 30 31 30 30 29 31 31 33 37 36 37 39 40 43 45 42 38 40 44 44 46 44 46 49 51 51 50 51 50 46 45 45 46 49 48 46 48 52 50 51 51 50
25 27 28 29 28 28 29 30 32 33 32 31 31 31 30 30 32 34 36 38 38 39 40 42 43 45 43 41 45 47 46 47 48 50 53 56 57 58 58 58 58 58 58 53 50 50 53 54 51 52 53 57 54 53
26 26 26 27 28 30 31 32 33 33 32 31 32 33 30 33 37 37 38 39 38 41 44 44 44 44 45 47 46 45 47 51 53 55 57 59 62 65 66 67 67 69 68 66 65 57 57 59 59 57 53 57 58 60
29 28 28 28 29 32 34 32 33 35 35 35 34 34 35 37 36 36 37 39 41 42 44 45 45 45 48 49 50 54 56 57 56 58 62 66 70 72 74 74 75 75 76 77 76 73 64 62 63 62 62 58 58 58
31 32 32 32 33 33 34 35 35 35 35 34 33 35 35 36 36 38 41 41 41 41 43 44 45 48 51 55 58 58 58 59 62 63 65 68 71 74 77 79 80 80 80 80 80 80 78 70 67 67 67 66 62 61
34 33 33 34 34 35 36 36 36 36 35 33 32 33 34 35 39 42 38 35 39 46 47 48 50 53 58 59 59 59 59 64 69 72 74 75 77 82 84 85 83 79 77 75 77 79 81 78 72 74 70 70 68 67
38 37 36 36 36 36 36 36 39 39 38 34 34 36 37 40 40 38 37 42 45 46 46 49 53 57 59 58 56 58 64 69 71 74 77 81 82 82 79 71 61 53 52 53 54 56 60 67 69 73 74 73 72 71
40 39 38 39 37 36 36 38 39 41 39 36 36 37 40 37 37 39 42 42 46 48 50 53 57 57 55 55 56 62 66 69 72 75 76 73 72 69 66 58 47 47 46 39 39 43 45 44 48 58 68 73 75 74
43 42 41 41 37 36 36 39 42 43 41 39 37 39 36 38 40 42 42 45 50 52 53 55 57 57 55 55 60 64 67 70 72 76 62 60 58 56 58 50 42 39 30 24 27 32 36 35 32 33 43 63 72 76
46 44 45 41 37 37 40 42 44 45 42 38 39 38 39 41 43 45 45 49 52 54 54 57 58 57 57 58 63 65 67 70 74 73 55 50 49 52 55 53 23 18 22 28 29 29 30 35 36 37 35 37 52 66
48 49 43 38 37 38 43 43 44 45 42 39 40 42 43 43 46 47 49 53 55 55 55 58 58 58 58 59 65 67 67 70 73 65 46 42 45 50 49 48 40 21 29 31 29 28 26 31 36 37 37 38 38 44
48 46 45 43 44 46 47 46 45 44 42 42 45 47 44 46 47 49 52 56 57 57 58 59 60 61 59 61 64 64 68 70 70 62 46 36 40 45 47 48 44 39 27 24 26 26 20 17 17 24 29 35 44 47
46 45 42 44 47 49 49 47 46 46 44 46 49 47 47 49 51 54 56 58 57 59 58 59 59 59 60 63 65 66 68 70 68 56 40 32 37 44 48 46 45 42 40 28 24 26 24 25 20 18 22 28 28 40
44 46 48 47 49 52 53 51 49 48 48 50 49 47 50 50 52 55 57 57 59 59 58 59 59 59 60 64 65 67 70 72 70 61 47 41 37 37 43 41 42 41 42 45 28 28 29 27 19 16 26 29 25 24
51 54 56 57 58 56 53 53 51 50 50 51 49 50 51 51 56 57 56 59 60 60 59 61 62 61 62 65 65 65 68 68 67 62 53 47 43 44 38 35 35 38 38 42 31 30 30 28 25 21 21 24 24 26
46 50 47 39 40 42 42 44 46 49 53 53 52 53 54 55 56 55 57 59 61 60 61 63 62 61 64 66 67 69 68 65 64 55 49 46 44 40 38 35 37 41 41 38 37 31 34 31 30 31 24 23 23 24
53 53 54 55 56 55 53 52 52 52 53 53 54 57 57 56 56 57 55 60 61 61 63 63 60 61 64 67 69 72 74 73 65 50 44 42 40 39 38 38 40 47 43 40 38 36 32 34 37 34 25 29 27 23
60 56 51 53 54 53 51 50 47 47 47 48 50 53 55 56 57 54 60 61 59 61 62 59 59 62 64 66 69 72 73 71 63 49 41 37 38 41 43 45 46 47 42 42 37 37 36 32 33 31 32 32 34 33
Wind_Direction
228 232 221 185 189 234 265 277 290 295 297 290 270 271 274 275 279 280 281 286 290 293 297 302 304 306 311 316 324 331 339 341 346 355 4 13 16 15 14 13 12 16 19 23 29 35 42 47 49 54 59 59 53 45
139 172 203 232 255 265 275 291 304 317 319 312 294 284 284 283 282 282 284 290 293 294 296 298 299 299 298 298 300 305 317 324 326 329 337 344 353 360 4 7 10 12 17 18 22 27 34 37 41 42 41 39 39 38
188 184 184 181 186 208 246 309 331 336 334 326 317 310 301 295 290 286 287 290 293 295 297 298 298 298 298 297 295 292 299 301 306 311 314 318 327 336 343 350 359 9 10 12 15 19 24 28 31 34 33 32 32 34
191 210 238 261 277 293 303 306 307 308 309 309 308 306 303 300 297 294 291 290 292 293 296 296 298 298 295 296 294 295 293 290 289 291 298 304 306 312 320 330 336 343 352 3 6 9 13 16 20 22 24 25 25 26
244 259 268 273 277 280 283 286 288 290 293 295 297 297 298 298 297 296 295 295 294 294 293 294 297 299 297 294 290 288 289 290 289 285 283 285 292 298 302 309 308 319 322 333 344 351 356 1 5 10 14 17 20 21
264 272 277 282 284 287 289 291 294 297 298 300 301 301 301 299 298 298 297 295 293 293 294 292 292 290 290 293 295 294 290 288 289 289 285 282 280 285 293 292 287 296 295 303 310 319 329 335 342 348 354 0 7 11
273 275 277 278 280 284 292 299 305 313 323 332 335 333 330 327 322 317 313 309 305 301 298 295 294 291 292 295 295 291 289 288 288 288 290 287 283 282 283 281 274 281 287 291 292 293 299 306 315 321 328 337 345 350
253 257 265 288 82 90 85 74 67 59 37 13 353 344 337 336 332 330 328 326 325 322 318 311 305 302 300 297 294 294 294 293 286 286 285 286 289 284 277 273 275 274 280 283 286 291 290 290 291 296 303 312 319 326
118 108 107 109 101 100 7 343 331 334 336 337 335 331 331 332 331 325 321 321 321 320 319 320 320 323 318 310 303 300 298 299 299 294 279 276 284 283 283 283 277 269 267 272 279 282 282 282 283 284 289 292 299 305
146 153 203 291 288 292 295 290 291 294 298 302 316 323 326 326 326 325 325 323 320 319 320 321 319 320 317 319 323 318 308 300 299 299 299 298 299 284 278 279 285 276 267 264 266 268 272 281 288 284 282 284 286 290
246 265 275 282 283 284 288 289 286 295 304 308 312 317 323 326 329 330 332 330 327 319 315 313 314 314 312 309 307 306 306 308 312 316 320 318 310 305 298 283 281 287 276 262 262 263 265 271 275 275 279 278 279 282
274 276 280 285 289 291 293 295 297 300 301 298 300 306 314 318 327 326 326 326 326 322 320 316 314 310 308 304 303 304 304 304 306 309 316 311 307 304 301 298 289 300 282 268 255 257 262 262 262 264 267 272 274 274
282 287 286 287 288 291 293 295 295 295 297 295 295 302 312 315 317 321 319 320 324 323 324 322 321 321 314 308 306 305 304 305 304 307 307 302 306 306 301 300 296 287 286 288 261 250 254 258 258 259 259 258 263 267
279 282 284 285 287 290 292 292 291 293 298 296 294 298 305 311 312 311 312 311 313 313 314 315 315 316 316 313 308 307 306 303 305 305 305 301 300 300 302 300 296 295 292 290 282 269 251 252 256 258 257 257 256 257
278 280 286 290 291 290 290 290 288 290 292 290 293 297 302 305 308 308 309 310 310 311 312 312 311 312 314 310 310 309 305 304 305 303 301 305 303 300 298 297 297 295 293 293 291 286 277 265 253 254 257 257 256 255
275 281 286 289 290 291 289 289 289 287 287 288 293 296 303 306 306 306 307 309 311 311 310 309 313 312 311 310 308 306 304 300 296 302 303 304 303 300 298 297 296 291 287 284 281 281 279 275 271 258 252 255 255 254
275 282 286 288 289 291 292 290 289 288 286 288 291 297 303 304 304 305 307 308 309 308 309 310 311 309 307 306 307 308 305 304 304 305 305 306 304 302 300 297 295 293 291 284 276 273 274 274 271 268 264 253 252 252
279 283 288 292 295 296 296 295 292 289 288 290 294 297 299 302 305 307 307 307 308 309 310 309 307 309 306 306 305 302 301 303 302 301 300 300 299 298 296 294 292 290 287 284 282 276 270 268 268 267 263 261 257 250
280 281 286 290 294 298 297 294 292 290 288 291 295 295 300 305 306 307 307 308 310 310 309 308 307 307 306 305 304 304 305 304 303 301 302 301 299 297 295 293 290 286 283 281 278 274 268 265 263 262 262 258 257 255
278 281 287 292 296 297 299 296 293 288 285 289 293 297 301 303 305 307 308 311 312 313 311 311 308 307 305 306 306 307 304 303 302 302 302 301 301 300 298 296 292 288 283 278 274 271 268 262 257 255 255 255 252 250
275 279 283 286 290 294 298 299 293 286 285 289 294 297 300 303 307 311 314 316 318 316 314 312 310 308 307 309 308 308 309 309 310 311 310 309 308 308 306 301 296 290 285 280 275 269 265 260 254 252 248 249 249 247
277 279 282 285 288 291 295 294 288 287 285 289 294 298 301 304 309 311 315 315 314 313 315 317 316 315 313 311 311 311 312 315 316 317 318 316 316 314 311 309 303 298 291 285 281 274 265 260 254 247 244 242 244 243
277 279 283 285 287 291 297 293 286 281 282 287 294 300 303 304 309 314 314 311 310 312 316 318 318 317 315 312 313 315 317 318 321 321 320 319 318 318 320 316 309 304 295 284 275 268 262 258 258 251 242 238 239 241
281 280 282 284 289 296 294 290 286 281 281 287 293 302 300 303 314 317 314 309 312 315 316 317 317 317 315 313 316 319 320 321 322 323 322 318 320 328 333 320 309 307 297 292 295 279 256 248 246 246 246 241 237 239
281 283 285 289 295 296 291 289 283 278 278 285 297 298 297 305 314 316 314 312 316 315 317 315 316 316 315 316 319 321 322 322 323 324 322 322 324 329 339 345 347 353 314 302 297 297 266 251 254 251 242 243 243 240
283 284 290 294 294 293 288 288 287 282 281 286 296 292 295 305 311 314 314 317 317 318 315 316 316 316 317 319 320 322 323 323 323 324 320 323 322 325 333 334 330 323 312 309 305 310 300 264 258 259 255 246 242 243
287 293 297 298 293 288 290 288 286 282 279 285 289 289 295 304 309 310 314 316 319 316 314 317 317 317 317 317 320 323 324 324 323 321 314 321 327 324 325 327 330 328 313 296 296 298 284 278 276 269 277 272 253 249
294 297 297 290 290 289 287 285 284 284 279 282 287 292 296 303 307 309 311 316 316 314 315 317 317 315 314 317 322 324 325 324 323 315 302 308 320 321 319 319 321 321 322 299 295 294 287 281 283 278 290 287 285 267
293 291 289 290 287 286 287 283 282 280 277 279 287 290 294 300 303 305 310 312 313 313 314 316 315 313 313 319 322 325 325 323 321 318 297 293 298 309 314 316 318 323 321 325 286 285 286 284 277 269 284 285 289 283
288 287 287 285 285 287 285 281 282 280 278 281 284 286 293 298 300 305 308 309 311 312 314 316 314 313 316 318 321 324 323 323 320 314 304 294 293 301 301 312 327 326 320 319 311 274 286 281 264 274 276 275 287 289
298 300 296 290 296 298 294 286 280 279 281 282 283 290 295 296 302 304 306 309 309 311 315 314 314 314 316 319 322 322 325 323 319 313 302 291 292 294 297 304 313 319 324 319 314 296 279 276 278 274 270 265 274 276
291 293 292 287 286 287 286 283 284 287 284 285 290 292 294 298 302 304 305 307 309 312 313 313 313 312 315 320 323 323 323 323 320 313 309 293 280 284 290 294 303 308 313 313 311 302 296 281 273 270 261 269 277 277
288 287 284 284 285 286 286 288 289 288 289 291 292 293 296 302 304 305 305 307 310 312 311 310 309 312 318 321 322 322 321 320 318 312 306 309 302 288 290 292 301 306 306 304 305 303 295 294 277 276 268 269 272 277
Height
5765 5766 5767 5768 5770 5771 5772 5772 5772 5772 5771 5771 5771 5771 5771 5771 5770 5770 5769 5768 5767 5765 5763 5761 5758 5756 5754 5752 5749 5747 5744 5740 5737 5733 5729 5724 5721 5717 5713 5709 5704 5699 5693 5686 5679 5673 5667 5661 5657 5653 5650 5646 5643 5639
5765 5767 5767 5768 5769 5769 5770 5770 5770 5769 5769 5768 5768 5768 5767 5767 5766 5766 5765 5763 5762 5760 5759 5755 5753 5751 5749 5747 5745 5743 5741 5738 5735 5732 5729 5725 5721 5717 5714 5710 5706 5702 5697 5691 5686 5681 5675 5670 5665 5661 5657 5652 5647 5643
5764 5765 5766 5766 5767 5768 5768 5768 5768 5768 5767 5766 5766 5765 5764 5763 5762 5761 5760 5758 5756 5755 5753 5750 5747 5745 5743 5740 5739 5737 5736 5734 5732 5729 5726 5723 5720 5717 5713 5710 5706 5703 5698 5694 5690 5685 5680 5675 5670 5665 5661 5657 5652 5647
5764 5765 5765 5766 5767 5767 5767 5767 5767 5766 5766 5765 5764 5762 5761 5760 5758 5756 5754 5752 5751 5749 5747 5745 5742 5740 5738 5735 5733 5731 5729 5727 5725 5723 5722 5719 5716 5715 5712 5709 5705 5702 5698 5695 5691 5687 5683 5678 5674 5669 5665 5661 5656 5652
5762 5763 5764 5764 5764 5764 5764 5764 5764 5763 5762 5761 5760 5759 5757 5756 5754 5752 5750 5748 5746 5745 5742 5739 5737 5734 5731 5729 5727 5724 5722 5720 5718 5716 5714 5713 5711 5710 5708 5705 5702 5700 5697 5694 5690 5687 5684 5680 5676 5672 5668 5664 5660 5656
5760 5760 5761 5761 5761 5762 5761 5761 5760 5760 5759 5757 5756 5755 5753 5751 5749 5748 5746 5743 5740 5738 5736 5734 5732 5726 5724 5721 5719 5718 5716 5713 5711 5709 5709 5706 5703 5703 5703 5701 5695 5695 5692 5691 5689 5686 5682 5679 5676 5673 5670 5666 5662 5658
5757 5757 5758 5757 5757 5757 5757 5757 5756 5755 5754 5753 5752 5750 5748 5747 5745 5743 5741 5738 5734 5731 5729 5726 5724 5719 5717 5714 5712 5708 5707 5706 5704 5702 5701 5699 5696 5696 5697 5689 5690 5688 5686 5685 5683 5682 5680 5677 5675 5672 5669 5666 5663 5660
5754 5754 5754 5754 5755 5755 5755 5755 5754 5753 5752 5751 5750 5748 5746 5744 5741 5739 5736 5732 5729 5726 5722 5718 5715 5714 5709 5706 5705 5702 5698 5697 5696 5694 5693 5690 5690 5686 5686 5677 5682 5682 5681 5680 5678 5677 5675 5673 5671 5669 5667 5664 5662 5659
5754 5754 5755 5755 5756 5755 5754 5753 5753 5752 5750 5749 5747 5745 5743 5741 5738 5735 5731 5727 5724 5723 5718 5715 5710 5707 5703 5700 5696 5694 5692 5688 5688 5685 5682 5682 5681 5677 5676 5672 5672 5673 5673 5673 5672 5671 5669 5668 5666 5665 5663 5661 5659 5657
5753 5753 5753 5754 5753 5752 5751 5750 5749 5748 5747 5745 5744 5741 5738 5736 5733 5730 5726 5722 5719 5715 5712 5709 5706 5702 5699 5695 5691 5688 5684 5681 5679 5677 5674 5673 5670 5669 5668 5664 5662 5662 5664 5664 5664 5663 5662 5661 5661 5660 5658 5657 5655 5653
5752 5752 5751 5750 5749 5748 5746 5745 5744 5743 5742 5740 5738 5735 5733 5730 5728 5724 5720 5717 5714 5710 5706 5703 5699 5695 5692 5688 5685 5682 5678 5674 5671 5670 5667 5664 5661 5659 5657 5656 5654 5652 5652 5653 5654 5654 5653 5652 5652 5653 5652 5651 5649 5648
5748 5747 5747 5746 5745 5744 5742 5741 5740 5738 5736 5735 5732 5729 5727 5724 5722 5719 5714 5710 5707 5704 5701 5697 5693 5689 5685 5681 5677 5674 5672 5669 5665 5663 5658 5657 5655 5651 5648 5645 5644 5643 5641 5641 5642 5642 5642 5642 5641 5642 5642 5642 5642 5640
5742 5742 5741 5741 5740 5739 5737 5736 5734 5732 5730 5728 5726 5724 5721 5719 5715 5712 5709 5705 5702 5698 5694 5691 5687 5684 5679 5676 5671 5667 5663 5661 5658 5655 5649 5648 5649 5644 5641 5638 5635 5633 5631 5629 5627 5627 5628 5629 5629 5630 5630 5631 5631 5631
5737 5736 5736 5735 5734 5732 5731 5729 5727 5725 5723 5721 5719 5717 5714 5711 5708 5704 5701 5697 5695 5691 5687 5683 5679 5676 5671 5668 5663 5659 5656 5652 5649 5645 5640 5637 5635 5634 5633 5629 5625 5623 5620 5618 5616 5616 5613 5613 5615 5616 5616 5618 5618 5619
5731 5730 5729 5728 5727 5725 5724 5722 5719 5717 5716 5713 5711 5708 5707 5703 5700 5696 5692 5689 5686 5683 5679 5675 5671 5666 5661 5658 5655 5652 5647 5644 5640 5635 5631 5628 5622 5620 5618 5617 5615 5612 5610 5607 5605 5604 5603 5602 5599 5601 5602 5603 5604 5606
5724 5724 5722 5721 5719 5717 5715 5714 5711 5709 5707 5704 5702 5700 5699 5695 5692 5688 5684 5681 5677 5673 5669 5665 5662 5657 5653 5648 5645 5642 5638 5634 5629 5626 5622 5617 5612 5607 5604 5600 5597 5596 5594 5592 5590 5587 5586 5588 5586 5586 5586 5587 5589 5590
5718 5716 5715 5713 5711 5709 5707 5705 5702 5700 5697 5696 5694 5692 5689 5686 5682 5678 5674 5670 5666 5662 5658 5655 5650 5645 5641 5637 5634 5629 5623 5619 5615 5613 5607 5601 5595 5591 5587 5582 5579 5576 5573 5572 5572 5569 5567 5566 5568 5570 5570 5571 5571 5573
5709 5707 5706 5704 5702 5700 5699 5696 5693 5691 5689 5686 5684 5682 5679 5676 5672 5668 5664 5660 5656 5652 5647 5643 5639 5635 5628 5625 5621 5616 5612 5609 5605 5598 5593 5587 5581 5574 5568 5563 5558 5553 5550 5548 5546 5549 5548 5546 5545 5547 5550 5552 5552 5554
5700 5699 5697 5695 5693 5690 5688 5688 5684 5681 5679 5676 5675 5672 5670 5666 5661 5657 5652 5648 5645 5640 5635 5630 5625 5621 5616 5611 5607 5602 5596 5590 5586 5581 5574 5566 5557 5549 5542 5537 5531 5527 5522 5517 5515 5515 5519 5521 5521 5522 5524 5528 5532 5534
5691 5688 5687 5685 5683 5680 5678 5677 5675 5670 5668 5667 5665 5662 5658 5654 5651 5646 5641 5637 5632 5627 5623 5619 5615 5609 5603 5597 5592 5586 5579 5572 5565 5561 5556 5547 5536 5525 5515 5504 5496 5490 5486 5482 5480 5479 5480 5488 5492 5494 5497 5500 5506 5510
5680 5678 5676 5674 5672 5669 5667 5666 5662 5659 5658 5657 5655 5651 5647 5643 5638 5634 5629 5624 5621 5616 5612 5607 5602 5595 5588 5582 5575 5568 5561 5553 5543 5532 5524 5517 5508 5492 5479 5468 5456 5447 5440 5438 5437 5439 5441 5449 5456 5462 5470 5472 5477 5484
5669 5667 5666 5663 5661 5660 5658 5655 5650 5648 5646 5645 5643 5639 5637 5632 5627 5623 5618 5613 5608 5603 5599 5594 5588 5581 5573 5565 5558 5551 5543 5534 5523 5511 5499 5485 5472 5459 5446 5434 5422 5417 5412 5408 5407 5406 5408 5411 5418 5428 5436 5444 5448 5454
5655 5655 5654 5652 5651 5649 5648 5642 5639 5636 5635 5634 5631 5628 5624 5620 5616 5613 5608 5603 5596 5592 5587 5581 5573 5566 5558 5550 5542 5534 5525 5515 5505 5491 5477 5464 5451 5437 5422 5412 5406 5398 5392 5390 5387 5385 5386 5390 5392 5397 5406 5415 5423 5427
5641 5640 5639 5638 5640 5638 5635 5630 5626 5623 5622 5620 5618 5615 5611 5606 5604 5599 5595 5588 5583 5578 5573 5566 5559 5552 5544 5536 5528 5518 5507 5497 5487 5476 5460 5446 5435 5425 5411 5397 5390 5386 5379 5376 5375 5373 5374 5376 5376 5378 5381 5387 5396 5403
5628 5628 5626 5627 5627 5625 5621 5617 5612 5610 5609 5606 5605 5601 5597 5593 5590 5586 5581 5574 5569 5563 5558 5551 5544 5535 5528 5521 5512 5502 5491 5479 5468 5458 5448 5435 5423 5414 5406 5393 5386 5381 5375 5370 5368 5365 5364 5364 5365 5366 5367 5369 5372 5380
5613 5613 5615 5616 5614 5611 5606 5603 5600 5597 5597 5595 5592 5586 5583 5580 5576 5572 5565 5559 5553 5548 5542 5535 5528 5521 5514 5505 5495 5486 5476 5465 5453 5442 5436 5425 5415 5404 5398 5392 5387 5384 5374 5365 5360 5357 5355 5355 5355 5356 5357 5358 5360 5362
5602 5602 5602 5601 5597 5594 5591 5588 5585 5584 5583 5582 5577 5571 5569 5566 5562 5556 5550 5545 5539 5532 5526 5518 5510 5502 5496 5490 5482 5472 5460 5449 5437 5425 5420 5415 5407 5398 5390 5383 5378 5374 5368 5361 5356 5351 5349 5348 5348 5349 5349 5349 5348 5348
5592 5591 5589 5584 5580 5577 5574 5573 5571 5570 5569 5564 5560 5559 5555 5551 5547 5540 5535 5529 5524 5517 5511 5503 5494 5487 5480 5472 5463 5453 5444 5433 5423 5414 5409 5406 5396 5389 5383 5377 5369 5363 5357 5352 5348 5345 5342 5341 5340 5340 5339 5339 5338 5339
5580 5577 5572 5569 5563 5561 5558 5556 5556 5554 5550 5547 5547 5543 5540 5536 5531 5526 5520 5514 5507 5501 5496 5490 5482 5475 5467 5458 5447 5436 5425 5413 5402 5398 5394 5391 5389 5387 5376 5368 5361 5355 5349 5344 5340 5337 5334 5332 5331 5329 5328 5328 5328 5327
5560 5554 5551 5550 5546 5544 5544 5540 5540 5537 5536 5534 5531 5528 5526 5520 5514 5509 5505 5499 5493 5486 5480 5473 5465 5458 5452 5445 5439 5430 5414 5402 5389 5378 5372 5372 5371 5369 5365 5359 5353 5347 5341 5335 5331 5328 5327 5325 5324 5323 5321 5321 5319 5318
5543 5540 5539 5535 5533 5530 5527 5524 5524 5522 5521 5519 5515 5513 5511 5505 5500 5491 5488 5484 5476 5470 5464 5457 5449 5441 5434 5425 5417 5411 5408 5396 5379 5369 5360 5355 5354 5352 5350 5346 5342 5338 5333 5327 5323 5320 5317 5316 5316 5315 5313 5312 5312 5310
5529 5525 5520 5520 5519 5513 5512 5511 5510 5508 5506 5505 5502 5495 5491 5487 5485 5481 5474 5468 5461 5455 5448 5440 5434 5428 5419 5409 5400 5389 5378 5371 5365 5358 5351 5344 5340 5338 5335 5333 5330 5326 5322 5318 5313 5310 5307 5306 5305 5304 5304 5303 5302 5301
5511 5507 5503 5501 5500 5499 5495 5494 5494 5493 5493 5491 5487 5480 5474 5469 5466 5460 5455 5452 5447 5440 5432 5426 5420 5414 5405 5395 5385 5375 5365 5355 5347 5342 5338 5333 5329 5325 5323 5320 5317 5313 5308 5305 5301 5298 5295 5293 5292 5292 5292 5292 5293 5292